Theta_e
293 294 294 291 290 290 290 289 289 287 288 288 287 288 290 288 286 286 291 289 289 292 293 293 294 292 290 291 290 290 291 289 287 287 287 288 288 288 287 288 287 287 286 286 285 285 284 284 284 284 284 284 284 284 284 283 283 283 282 281 281 280 279 279 279 279 279 278 278 278 278 278 278 278 278 278 278 279 279 278 278 277 277 276 276 276 275
291 292 293 291 289 290 288 288 288 289 288 288 288 289 290 290 289 292 292 291 291 294 291 292 295 294 293 293 290 288 289 289 288 288 288 288 288 288 288 288 289 289 288 287 287 286 285 284 284 284 284 284 284 284 283 283 282 282 282 281 280 279 279 279 279 278 278 278 278 278 278 278 278 278 278 278 278 278 278 278 277 277 276 276 276 276 275
288 290 291 288 289 289 288 288 288 289 289 288 289 289 289 290 290 291 291 290 290 295 292 292 293 292 291 288 287 289 290 290 288 288 288 289 289 289 289 290 290 289 289 288 287 286 285 285 284 284 284 284 284 284 283 283 283 282 281 280 280 279 279 279 278 278 278 278 277 278 278 278 278 278 278 278 278 278 277 277 277 276 276 276 276 276 275
287 289 287 286 287 287 287 288 289 289 288 285 286 287 290 289 288 289 289 287 288 294 294 295 289 289 290 291 290 289 289 289 288 288 289 289 289 289 290 290 290 289 288 288 287 286 286 286 285 285 284 284 284 283 283 283 282 281 281 280 280 280 279 279 278 278 278 277 277 278 278 278 278 278 278 278 278 278 277 277 276 276 275 275 275 275 274
286 290 287 286 286 285 284 286 290 291 291 291 290 290 290 290 292 288 287 288 294 295 290 291 290 290 290 290 290 289 288 289 289 290 291 291 290 291 291 290 290 290 289 289 288 287 287 286 286 285 285 284 283 284 283 283 282 280 281 280 280 280 279 278 278 278 278 278 277 278 278 278 278 278 278 278 277 277 276 276 276 275 275 275 274 273 272
287 288 286 287 284 279 282 293 296 295 292 292 289 289 290 291 291 290 293 294 294 291 288 292 292 288 290 291 292 293 292 289 288 289 290 290 291 291 291 291 290 290 290 289 289 288 288 287 287 286 285 284 284 284 283 283 282 281 281 280 280 279 278 278 278 278 278 278 278 278 278 278 278 278 277 278 278 277 277 276 276 275 275 274 273 271 271
285 286 285 283 278 281 290 288 290 295 296 295 293 293 294 294 292 292 291 291 292 293 291 291 292 292 292 292 292 291 290 290 291 290 290 290 290 290 290 289 290 289 290 289 289 288 288 287 286 285 284 284 284 283 283 282 282 281 281 280 279 279 278 278 278 278 278 278 278 278 278 278 277 277 277 277 277 277 276 276 275 274 273 272 271 270 270
284 281 284 277 280 287 287 288 284 284 287 287 288 289 292 294 294 293 291 293 294 294 293 289 289 290 290 289 288 287 287 288 290 289 290 290 290 290 290 289 289 289 289 289 289 289 288 287 286 285 285 284 284 283 283 282 281 281 281 280 279 279 279 278 278 278 278 278 278 278 278 277 277 277 277 277 276 276 275 275 274 272 269 268 270 269 269
281 284 284 284 288 287 289 289 283 286 287 286 288 285 289 293 294 293 293 294 294 293 293 291 288 285 287 287 288 285 287 288 288 290 291 290 290 290 290 290 290 290 289 289 288 288 287 287 286 285 285 284 283 282 281 282 281 281 280 280 279 279 279 279 278 279 279 278 278 277 277 277 276 277 277 275 276 275 274 274 272 271 271 270 270 270 269
287 284 282 282 282 280 286 289 285 290 290 290 290 289 288 292 290 292 293 293 293 292 292 288 284 285 286 286 288 286 286 287 288 287 288 288 288 288 287 287 287 288 288 287 287 288 287 286 286 285 284 284 283 282 281 281 281 280 280 280 280 279 279 279 279 279 279 279 278 278 277 277 277 277 277 276 275 273 273 272 272 271 270 269 268 269 268
284 283 281 282 280 284 288 285 284 283 281 288 287 287 285 287 282 288 292 292 293 292 291 284 285 287 287 288 290 288 286 286 287 287 286 287 288 288 288 288 287 287 287 286 286 286 286 285 285 284 284 283 283 282 282 281 280 280 280 280 280 279 279 279 279 279 279 278 278 278 277 278 277 277 276 275 274 272 273 273 272 271 269 269 267 266 267
285 284 282 281 285 286 285 282 283 284 280 287 289 279 281 286 283 282 283 289 290 290 288 286 287 289 287 289 288 287 287 287 286 288 287 287 287 287 287 287 287 286 286 285 285 285 285 285 284 284 284 284 283 282 281 280 280 280 280 280 280 280 280 279 279 278 279 279 278 278 278 278 277 277 276 274 273 273 272 272 271 269 269 269 268 267 266
285 285 283 285 285 287 284 283 282 281 281 288 283 280 285 283 280 282 283 285 284 284 284 287 287 287 285 288 287 286 286 286 286 286 287 287 287 286 286 285 286 286 286 286 286 285 285 284 284 284 284 284 283 282 281 280 280 281 281 281 280 279 278 278 278 278 278 278 278 278 278 278 277 275 275 275 273 272 271 270 268 267 267 267 267 267 265
284 285 282 284 286 287 285 281 282 282 288 282 282 282 279 278 281 283 283 283 283 284 286 286 285 283 281 282 283 285 286 286 285 285 285 284 284 284 285 285 285 285 284 283 283 282 282 283 284 284 284 284 283 281 280 281 282 282 280 279 278 277 277 278 277 277 277 278 278 278 277 276 275 275 274 274 273 272 270 269 269 269 267 266 266 266 265
283 282 282 281 278 286 284 285 284 285 284 284 282 281 280 279 280 282 284 283 283 284 283 280 280 280 280 280 282 283 284 284 284 284 284 284 284 284 284 283 283 284 283 282 282 282 281 281 283 283 284 283 281 281 281 282 281 278 278 278 277 277 277 277 276 277 277 276 277 277 276 276 276 275 272 272 270 270 269 268 269 268 267 266 266 266 264
280 282 279 281 285 284 282 285 285 283 285 286 282 284 282 281 280 281 282 284 285 285 284 280 280 280 281 281 282 282 282 283 283 282 282 282 283 283 283 283 282 283 282 282 281 280 280 280 281 283 283 282 280 280 282 280 277 275 276 276 276 276 276 276 275 275 275 276 276 276 276 275 275 274 271 271 270 269 269 269 269 268 267 266 265 266 266
285 283 284 282 281 283 282 282 283 284 284 284 283 285 285 281 282 282 284 284 285 285 283 281 281 281 281 281 282 283 282 282 282 282 282 282 282 282 282 282 282 282 282 281 280 279 278 279 279 280 281 281 279 280 279 277 276 276 275 274 276 275 275 275 275 275 273 274 274 274 274 275 274 274 271 269 270 267 268 268 268 269 268 266 266 266 266
282 283 283 284 282 282 282 283 283 283 283 283 284 284 286 284 284 283 283 283 285 284 283 282 281 280 280 280 280 280 281 281 281 281 280 280 280 281 281 280 280 280 280 280 279 278 277 276 278 278 278 279 279 278 274 276 272 274 273 274 274 276 274 274 274 272 272 270 270 271 272 273 275 274 273 270 271 268 267 268 268 268 268 266 266 266 266
284 281 283 283 284 284 284 284 285 284 283 284 284 284 283 283 282 282 281 283 285 284 283 283 281 279 280 280 279 280 280 280 280 280 280 280 280 280 281 280 279 279 279 279 278 278 277 275 276 276 275 276 276 273 273 274 273 272 272 273 273 270 270 270 268 268 272 272 269 266 266 267 269 271 271 270 270 268 268 268 268 267 268 267 266 265 265
283 281 280 280 281 282 283 284 284 285 285 285 284 282 280 280 280 281 281 282 282 282 282 281 280 280 280 280 279 280 280 280 280 279 279 279 279 278 279 279 279 279 280 279 278 276 278 276 275 274 274 273 271 268 269 271 271 271 272 272 272 269 267 266 266 265 267 269 267 265 265 265 268 267 267 268 269 270 268 268 268 268 268 267 267 267 266
279 280 280 279 282 284 285 284 284 284 285 284 284 281 279 279 280 280 280 280 281 281 281 280 280 279 279 280 280 280 279 279 278 279 278 278 278 277 278 277 278 280 278 277 277 277 275 273 271 270 270 270 269 270 267 266 269 271 270 268 266 265 264 265 265 264 264 263 264 263 262 261 261 262 265 265 267 266 265 263 264 265 265 266 266 263 263
278 279 281 281 282 282 285 286 286 286 285 284 282 280 280 279 279 279 280 279 279 279 280 281 281 281 279 279 279 279 279 279 278 277 277 276 276 275 274 275 274 274 275 275 274 273 272 270 271 270 268 268 268 268 264 264 267 269 268 267 265 265 265 265 263 264 263 263 262 263 263 263 263 262 266 271 268 265 264 270 273 274 273 267 264 263 265
280 283 282 285 286 285 286 288 288 286 285 283 282 281 280 279 279 279 279 279 279 280 279 279 281 280 280 279 279 278 278 278 279 279 278 277 276 275 275 275 272 273 272 272 272 272 271 270 270 269 267 265 265 265 266 266 266 267 267 268 266 265 264 265 266 265 263 263 263 263 263 262 261 262 262 264 272 274 273 272 273 274 275 276 276 275 269
281 284 283 284 283 284 284 285 286 286 285 283 282 281 280 279 279 278 278 279 279 279 279 277 278 279 279 279 279 279 277 276 277 276 276 277 277 276 274 276 274 273 272 272 272 273 270 269 268 267 266 263 263 262 262 263 264 264 265 269 268 267 266 263 266 264 262 263 262 262 260 260 262 260 260 261 263 270 273 274 275 275 275 275 276 276 276
283 282 283 284 284 285 283 283 285 285 284 283 282 281 279 278 279 279 278 278 278 279 279 278 277 277 279 277 278 278 277 276 276 276 276 276 276 276 274 272 273 273 273 273 272 271 270 269 267 265 263 261 260 261 260 261 262 263 263 265 266 263 263 264 264 265 263 263 262 263 261 261 259 260 261 261 262 261 264 272 274 275 275 276 276 276 276
283 282 283 283 282 282 278 280 282 282 282 282 281 278 279 280 279 278 278 278 277 277 277 277 277 277 278 277 276 275 276 276 276 276 276 276 274 273 273 272 272 271 270 270 270 269 268 267 265 262 260 258 258 258 258 258 260 261 261 262 262 261 261 261 263 262 262 261 262 261 261 261 261 260 260 260 260 260 259 258 264 270 274 275 275 275 276
282 283 282 280 280 279 278 282 281 281 281 280 281 279 279 279 279 277 276 276 275 276 276 277 277 276 275 275 275 275 277 275 274 274 274 273 273 272 270 270 271 270 269 267 266 266 266 264 262 259 257 256 256 257 258 258 260 260 260 261 260 262 262 261 260 260 261 261 261 260 260 260 260 259 260 259 259 259 258 259 259 260 260 264 269 272 272
281 282 284 282 279 280 279 278 276 278 279 279 278 278 276 277 277 277 276 277 276 275 275 274 276 275 276 273 274 274 274 274 274 272 271 269 268 267 267 268 268 267 265 264 263 263 262 261 259 257 256 257 257 256 256 256 259 259 260 261 260 260 260 259 260 260 259 259 259 260 258 258 257 258 258 259 259 257 258 258 257 257 256 258 260 266 269
279 280 278 278 280 278 276 275 276 277 275 275 276 276 277 277 274 275 275 275 274 274 275 272 271 272 275 272 273 273 273 272 272 270 268 266 264 264 264 265 264 263 262 261 260 260 260 258 257 256 255 256 256 256 256 257 259 260 258 259 259 259 259 258 257 259 257 257 257 260 263 260 258 257 258 258 257 256 255 255 256 257 257 258 260 261 265
276 275 275 275 275 276 277 275 276 275 275 275 276 274 275 276 276 274 275 274 272 274 273 272 273 272 271 271 270 273 273 272 270 266 264 263 262 262 263 263 263 263 261 259 258 257 257 256 255 255 255 255 256 256 255 256 258 257 257 258 258 258 258 256 258 257 258 259 258 262 259 258 257 256 256 255 255 255 255 255 258 257 257 256 261 257 259
272 272 272 273 274 275 277 275 274 274 274 273 274 274 272 273 275 275 273 273 272 273 271 271 271 270 270 271 268 267 268 267 264 263 261 260 259 259 259 262 266 264 261 258 256 254 255 254 254 254 255 254 254 254 256 256 256 258 258 259 258 263 263 263 262 257 256 257 256 256 256 256 256 256 256 255 255 254 253 253 254 254 256 256 257 259 260
274 272 271 272 272 273 272 273 274 274 274 272 272 273 273 274 273 274 272 272 272 271 270 269 270 271 269 267 266 265 263 262 261 259 258 258 257 257 257 257 257 257 256 255 255 255 254 254 254 253 253 254 254 254 255 256 256 258 258 259 258 258 261 263 260 261 258 257 256 255 256 254 253 254 254 254 253 253 252 252 253 255 255 256 257 257 258
275 272 272 271 270 271 273 271 274 273 272 272 274 273 273 271 272 273 273 273 271 270 271 270 268 267 266 267 265 263 261 260 259 258 257 256 256 256 256 256 256 255 254 254 254 254 254 253 253 254 253 254 254 255 255 256 258 256 255 256 258 259 260 261 261 258 257 256 254 254 253 254 253 252 253 254 254 254 252 253 254 254 254 254 253 252 255
276 276 277 276 276 275 275 275 274 274 272 272 270 270 271 270 271 272 271 269 269 268 268 266 264 264 265 264 262 261 262 264 262 258 256 255 254 254 255 255 255 254 254 254 254 254 254 254 253 254 255 255 254 255 255 256 256 255 254 255 256 256 256 256 258 255 254 255 254 257 254 255 253 253 254 254 253 252 253 253 254 253 252 251 250 250 256
272 270 269 268 266 269 274 276 275 274 273 272 269 268 267 267 268 268 267 267 264 263 261 261 262 262 262 262 261 261 263 263 262 258 255 254 254 254 255 254 254 253 253 254 253 254 253 254 254 253 254 254 254 254 255 255 253 254 252 254 255 254 254 254 253 254 253 253 253 251 252 252 252 255 254 251 251 252 251 252 252 251 251 250 249 250 252
267 268 266 263 262 261 261 261 265 269 270 269 267 264 262 261 261 262 262 260 260 260 261 262 262 262 262 262 262 260 259 257 257 256 255 254 254 255 254 253 253 253 253 253 254 252 253 254 258 257 255 255 254 254 254 254 251 252 252 253 253 253 253 253 252 252 252 251 251 251 250 253 253 252 251 250 250 249 250 250 249 250 249 249 249 249 249
260 263 261 259 258 257 256 257 256 259 260 260 261 260 258 258 257 257 257 257 258 258 258 259 261 260 257 256 255 255 255 256 256 255 254 255 254 254 253 252 253 252 253 252 250 250 251 251 257 256 255 254 254 254 255 256 252 252 252 252 251 251 251 250 250 249 249 250 250 250 252 250 248 248 251 249 250 249 250 248 249 249 249 249 250 249 250
257 256 257 256 256 255 255 255 256 256 256 255 255 255 255 255 255 254 254 255 254 255 256 256 256 254 254 254 253 253 252 252 253 254 253 253 253 254 252 252 251 251 251 249 252 252 251 255 255 254 254 254 254 255 256 257 256 253 252 251 250 250 251 250 250 250 249 248 250 248 248 247 247 247 245 246 247 248 249 249 249 249 248 249 248 249 249
259 258 257 257 256 256 255 255 254 254 255 255 254 254 254 254 253 253 254 254 254 254 255 255 255 254 254 253 252 251 250 250 251 252 251 250 251 250 249 247 247 249 249 251 252 249 253 254 252 250 251 251 255 256 256 256 255 252 251 250 249 250 250 250 249 250 250 250 247 247 247 248 247 248 247 246 246 248 250 250 249 250 248 248 247 248 249
257 256 256 256 255 255 254 253 252 252 252 253 253 253 252 254 254 254 254 254 254 254 254 255 255 253 252 251 251 250 247 248 248 249 249 249 250 250 250 249 247 248 252 253 250 249 254 255 252 251 253 255 254 253 254 254 255 250 248 248 249 249 249 249 249 248 248 247 249 252 248 248 248 248 248 248 247 248 247 247 248 248 248 248 247 247 248
257 256 256 255 254 254 253 253 252 252 251 251 251 251 252 253 253 254 253 253 252 253 253 254 253 251 251 250 250 248 247 247 247 247 249 251 251 251 252 248 248 247 248 248 248 250 253 252 250 251 251 254 253 254 249 253 251 248 249 248 248 247 248 248 248 248 248 248 249 247 246 246 247 247 248 247 247 247 247 247 247 248 247 248 249 248 247
255 255 255 254 254 254 253 253 253 251 251 250 250 250 251 252 252 252 252 252 252 252 251 251 251 250 249 249 249 248 248 247 248 247 248 251 250 251 252 248 247 246 253 253 252 251 249 248 251 253 252 252 253 254 254 253 249 248 248 248 248 248 248 248 248 248 247 246 246 244 245 246 245 246 247 247 247 247 247 247 247 247 247 247 248 248 247
253 253 253 252 252 252 251 251 251 250 250 250 250 250 250 250 251 251 251 252 252 251 251 251 251 251 250 250 250 250 248 247 249 249 249 246 245 246 250 251 247 247 254 251 248 247 247 247 249 249 254 253 253 254 254 252 251 250 247 248 249 248 248 248 247 247 247 246 245 244 244 246 245 245 247 247 248 247 247 247 248 248 247 248 247 248 248
252 251 251 251 250 251 250 250 250 251 250 250 250 250 250 250 250 250 251 251 251 252 252 251 251 251 250 250 251 251 249 249 248 248 250 249 250 249 247 248 246 250 254 250 250 248 247 247 247 253 254 254 254 254 253 251 251 250 249 247 248 248 248 248 248 247 247 248 247 247 246 248 247 247 246 248 247 247 247 247 247 247 248 248 247 248 248
251 251 250 250 251 251 250 251 251 250 250 250 250 250 249 249 249 250 251 251 251 252 252 252 251 252 252 252 250 248 248 247 247 248 250 249 251 249 248 251 249 249 251 253 250 249 246 246 250 254 254 255 255 255 252 251 251 251 251 251 250 247 248 248 248 248 248 248 248 248 248 248 247 248 248 248 250 249 248 249 249 249 249 248 249 249 249
250 250 251 251 251 250 251 250 251 251 251 251 251 250 249 248 249 249 249 250 250 251 251 251 251 251 251 251 250 250 249 248 247 245 247 246 247 248 249 250 248 252 253 254 250 248 246 253 255 254 255 255 255 253 251 252 252 251 251 251 248 249 248 248 248 249 248 249 249 248 248 249 247 249 249 248 249 249 250 250 250 249 248 249 248 249 250
250 250 250 250 250 250 251 252 253 253 253 252 251 249 249 248 248 248 247 247 247 247 249 249 249 249 249 249 249 249 248 249 249 247 246 247 250 250 251 253 253 253 252 249 249 249 249 250 253 255 255 255 255 250 249 249 250 251 251 248 248 248 249 248 248 248 248 248 250 251 251 250 249 249 249 250 250 250 249 250 250 250 250 250 250 250 251
251 250 250 250 250 251 251 251 250 250 250 249 249 249 247 247 248 248 247 248 248 247 247 246 246 244 244 244 244 245 246 248 250 248 245 244 245 245 246 245 249 253 253 253 253 254 255 255 255 255 255 255 254 250 249 250 251 251 249 249 248 248 247 249 248 248 248 249 249 248 248 248 249 249 249 248 250 250 250 249 250 249 249 249 250 250 248
250 250 250 250 251 251 251 251 250 250 249 248 249 248 248 249 249 249 248 248 247 248 248 245 244 244 245 247 246 245 246 247 246 248 248 248 250 249 251 252 254 254 252 250 248 246 252 255 255 255 255 255 250 248 247 247 249 250 250 249 249 249 249 249 249 248 248 248 249 249 249 249 249 248 249 249 249 250 250 250 250 249 249 249 249 249 249
250 250 250 250 250 250 250 251 250 249 248 248 248 248 247 249 251 248 248 247 248 248 247 246 246 245 245 245 245 244 244 246 250 251 250 249 249 251 251 251 250 253 254 250 249 249 252 254 255 255 254 252 250 251 251 252 249 249 249 251 251 250 251 252 253 253 251 250 250 250 251 251 250 251 251 249 250 250 250 251 249 251 252 251 250 249 248
249 249 249 249 249 249 249 249 249 249 248 248 248 249 250 250 249 249 247 246 246 249 246 246 246 245 246 246 245 245 246 245 249 252 251 251 251 252 253 252 252 253 254 253 252 251 250 250 249 251 252 252 251 251 250 251 250 250 251 251 250 250 250 251 250 250 250 250 250 250 251 250 250 250 249 250 250 250 250 250 250 249 248 248 249 249 248
249 249 249 250 249 249 249 248 248 248 247 248 247 248 248 248 248 248 248 251 247 246 246 246 248 247 245 245 247 246 246 249 249 250 253 253 252 252 252 254 253 252 251 251 251 249 250 250 252 253 253 252 251 250 251 252 251 250 251 251 251 251 251 250 250 249 249 250 250 250 251 250 249 250 250 249 250 250 250 249 249 248 249 248 248 249 248
Wind_Speed
19 18 18 13 13 13 14 17 16 15 17 16 21 24 21 8 12 20 19 11 17 26 11 11 13 11 12 13 13 13 9 4 4 4 8 11 13 11 13 15 13 13 14 14 14 14 14 12 13 13 12 11 10 9 9 11 11 12 11 12 12 12 11 12 12 11 9 8 7 8 9 9 9 9 9 8 8 8 8 8 7 8 8 8 9 8 6
16 19 17 7 13 6 4 10 14 16 19 24 27 25 17 14 15 20 24 20 18 24 3 11 13 10 13 9 4 2 5 9 9 8 9 12 12 14 15 15 16 16 17 16 16 14 13 16 15 14 13 13 13 13 12 12 12 11 11 12 13 12 12 12 10 10 10 8 9 9 9 10 10 9 9 9 9 9 9 8 8 7 7 7 8 9 9
15 19 12 4 9 7 7 8 12 18 23 24 21 13 11 17 21 26 22 18 23 20 7 9 6 4 1 0 5 11 11 8 11 13 14 14 15 16 16 15 15 14 13 12 12 14 15 16 17 16 14 13 11 11 11 12 12 12 11 12 12 12 13 11 10 10 10 10 9 11 10 9 8 9 10 8 8 8 8 8 9 8 8 9 8 8 9
14 14 7 5 5 5 7 12 17 23 20 9 6 13 20 14 19 21 15 17 21 17 7 7 3 4 8 11 11 9 8 10 10 12 13 13 13 13 14 14 13 13 13 13 14 17 17 16 16 14 13 12 12 14 12 12 11 10 11 12 12 12 11 10 10 11 10 10 10 10 9 9 9 9 8 9 9 8 8 8 8 7 8 9 8 8 7
14 16 9 9 6 2 6 17 30 26 16 13 11 13 12 18 18 13 15 22 21 16 5 7 7 10 11 11 9 10 10 10 14 17 18 19 17 17 16 15 16 15 16 18 19 18 15 15 15 15 13 12 14 13 13 11 9 11 12 11 11 11 10 10 10 10 10 11 11 10 9 9 9 9 10 9 9 9 10 8 7 8 10 9 8 7 7
12 11 9 7 5 11 16 20 11 15 19 19 19 18 20 19 14 16 19 20 18 8 6 12 13 9 11 12 14 14 15 13 13 14 12 11 12 12 13 15 16 16 14 12 12 14 14 13 11 9 11 13 10 9 10 10 12 12 12 11 11 11 9 10 10 10 11 10 10 10 9 9 9 10 10 11 10 8 7 7 9 8 7 8 7 8 8
10 3 9 6 15 18 11 4 4 9 18 19 20 22 19 18 18 19 19 19 20 19 10 9 9 11 11 10 13 13 11 12 15 18 18 16 14 15 13 11 10 11 12 11 10 10 11 12 11 11 10 10 10 10 11 13 12 12 12 12 11 11 11 10 10 10 11 10 11 10 10 9 10 10 11 9 9 9 9 10 11 11 10 9 8 7 7
2 1 7 9 12 5 4 5 1 1 4 2 6 11 18 20 20 20 22 24 23 20 14 9 7 8 10 7 7 4 2 7 11 11 12 13 14 15 12 12 11 11 13 15 15 14 9 11 11 12 12 11 12 12 11 12 11 12 12 12 12 11 11 11 12 12 12 11 10 9 10 9 10 11 10 11 11 9 8 7 5 4 4 5 7 8 7
9 7 12 16 6 14 12 11 3 6 6 6 11 11 15 19 18 16 16 20 20 16 15 12 8 3 1 4 9 1 6 8 8 11 11 11 10 8 8 10 12 9 8 9 9 9 10 11 11 12 10 11 11 10 11 10 11 11 11 12 13 12 12 12 12 12 12 12 11 10 9 10 11 11 11 10 9 7 8 8 8 8 9 9 8 8 8
11 11 11 5 5 12 19 6 2 7 5 7 7 8 13 10 7 12 15 19 20 16 13 7 4 4 3 9 12 5 6 5 4 1 1 2 3 4 4 3 4 7 7 8 9 11 10 9 9 8 9 11 11 11 11 10 11 11 11 13 12 11 12 12 12 11 11 11 11 10 10 13 13 11 10 8 9 8 11 10 10 11 8 8 7 7 8
7 9 9 9 10 13 4 1 3 0 2 7 5 4 13 3 1 7 14 19 19 15 13 6 8 7 10 14 11 6 6 4 5 6 3 4 6 7 10 13 13 11 9 9 8 8 9 8 6 8 10 11 11 11 10 10 11 11 13 12 10 12 13 11 10 10 10 10 11 11 12 12 12 12 11 11 9 8 9 8 9 7 7 7 7 6 7
9 9 10 11 6 9 2 4 0 2 1 5 7 2 8 2 3 3 3 12 11 8 4 9 9 11 14 13 4 4 7 7 4 7 10 8 8 8 6 4 6 8 9 10 8 8 8 8 7 9 10 10 10 10 9 9 10 12 13 12 12 11 9 8 9 8 9 10 11 12 13 11 10 10 7 6 8 9 8 7 7 7 7 7 8 8 7
15 15 9 5 6 3 2 5 4 2 2 5 6 14 1 1 4 4 3 5 3 5 6 8 10 3 1 1 1 6 9 9 7 5 4 5 5 7 7 7 7 8 7 8 9 8 6 8 8 9 9 9 9 8 9 9 11 13 11 8 8 7 7 7 7 9 8 10 12 11 11 11 9 7 7 9 8 8 9 7 6 6 7 7 7 7 6
12 12 12 11 6 3 5 1 6 3 6 7 11 1 2 2 3 3 2 3 2 6 9 8 2 1 0 3 3 6 5 8 7 7 8 8 7 5 5 7 8 8 8 7 7 6 5 8 8 8 9 9 7 7 7 9 12 9 5 6 6 6 7 8 8 8 9 8 9 10 7 7 8 9 7 7 8 9 7 7 9 9 7 7 7 7 6
1 1 9 3 8 2 6 10 3 1 5 3 3 2 1 4 3 0 1 2 3 4 4 3 4 4 4 4 5 5 6 7 8 8 8 8 9 9 9 7 5 9 8 7 7 7 6 6 6 7 8 8 7 6 8 12 6 4 5 5 6 7 6 7 7 9 8 9 9 7 8 9 9 9 7 7 7 7 8 8 9 9 8 7 7 8 7
6 8 9 8 3 7 2 2 8 5 3 3 5 4 0 1 2 1 0 1 2 2 4 6 4 4 6 5 5 7 6 6 6 5 6 7 7 6 4 5 7 6 8 6 7 5 5 5 5 6 9 8 7 7 12 3 4 4 5 5 6 6 7 7 7 7 8 8 8 7 9 9 9 9 8 8 8 8 8 9 9 9 8 7 7 8 10
6 4 2 0 2 2 1 1 1 0 0 1 3 1 1 2 2 2 2 2 3 3 6 5 5 3 2 4 2 5 5 5 5 6 5 6 7 6 7 7 5 5 9 9 7 6 4 5 4 5 6 10 7 9 4 4 5 6 5 5 6 6 7 7 8 7 6 7 8 7 7 9 9 8 7 7 8 6 7 8 8 9 9 8 9 10 9
1 1 2 1 1 2 2 1 2 2 0 0 1 3 0 1 2 2 3 3 4 4 5 7 1 3 4 5 3 3 4 5 4 4 6 5 5 5 6 6 5 6 6 7 8 8 4 4 4 4 4 8 11 6 3 5 4 5 6 6 6 7 6 6 7 5 7 6 6 6 7 8 9 9 10 9 9 7 7 8 8 9 9 8 9 9 10
5 3 2 1 1 2 3 4 4 2 2 2 1 1 1 1 2 3 2 5 5 5 4 5 6 4 4 5 3 4 5 5 5 6 6 6 7 8 8 7 8 7 8 8 7 7 7 4 5 4 5 4 2 2 4 5 6 6 6 6 5 4 5 2 1 3 5 6 5 4 5 5 6 7 7 8 8 8 8 9 9 9 9 9 9 9 10
3 1 0 3 3 5 6 3 2 3 2 2 0 2 3 4 3 4 3 4 4 4 4 4 7 5 4 7 5 5 5 6 6 6 6 7 5 3 4 6 6 6 7 8 7 6 7 7 5 5 4 3 2 3 3 5 6 6 6 6 7 5 5 4 4 3 3 3 4 3 1 1 5 4 4 6 8 10 11 11 11 11 10 10 11 11 10
0 3 4 3 1 4 6 5 5 6 5 3 1 2 3 3 5 5 4 3 3 4 5 4 7 6 4 4 6 6 4 4 4 5 6 5 5 7 7 5 6 9 7 7 7 7 3 2 3 3 2 1 2 2 3 4 5 6 6 5 5 5 5 5 5 4 5 4 4 4 3 1 1 1 5 4 5 3 1 1 4 6 6 7 6 3 4
3 7 7 8 5 4 6 9 12 10 6 4 3 0 2 3 5 4 5 4 3 3 4 6 7 7 5 3 4 5 5 5 5 4 4 4 4 4 3 4 4 3 4 4 4 4 3 3 5 4 3 3 1 2 3 4 4 5 5 5 5 5 5 4 4 5 4 5 4 6 6 6 6 5 5 8 7 6 6 4 7 10 8 7 5 5 6
6 5 7 11 4 2 6 10 11 10 6 4 5 5 4 3 3 5 7 5 3 3 2 1 5 5 7 6 4 5 4 5 5 7 8 7 5 4 5 6 4 4 4 4 5 5 4 4 5 5 4 2 2 2 0 1 3 4 4 5 3 4 4 4 5 6 4 5 5 4 5 4 4 4 4 5 6 8 9 8 10 10 12 13 13 12 9
1 4 11 10 5 6 5 5 6 8 7 8 8 4 1 3 4 3 3 4 5 3 1 3 2 5 5 5 6 7 3 3 4 4 3 4 5 6 5 6 6 6 5 5 5 5 4 5 6 5 5 4 4 4 3 1 1 3 4 5 5 6 5 5 5 4 4 5 4 5 3 3 5 4 3 4 6 6 7 9 10 12 12 12 12 11 12
5 5 7 11 10 7 2 1 4 4 5 8 7 6 4 4 3 3 4 2 1 5 5 3 2 2 6 4 4 5 5 3 4 5 5 5 5 6 5 5 6 6 6 5 5 5 5 6 6 5 6 3 4 5 5 3 1 3 3 4 4 4 4 5 4 5 5 5 4 5 4 4 3 3 5 6 5 5 5 6 10 12 12 12 12 13 13
5 5 7 5 4 3 1 2 0 3 5 6 4 3 3 5 6 4 3 4 3 2 4 5 4 2 6 6 5 4 5 5 4 5 5 5 4 4 4 4 4 4 5 5 4 5 5 6 7 6 5 3 4 5 4 3 1 3 3 3 3 3 3 3 4 3 4 4 5 4 3 4 5 5 4 5 5 3 2 4 4 4 5 8 10 11 12
3 7 8 4 2 4 1 6 5 3 6 5 6 5 4 5 6 4 3 3 3 2 4 4 5 4 4 4 6 4 7 4 5 4 5 5 5 3 3 4 5 6 7 6 5 4 6 6 6 6 4 3 3 4 4 1 3 4 4 4 4 5 5 4 3 3 3 3 4 3 4 4 4 3 4 3 3 3 3 2 2 2 2 4 6 9 5
5 7 10 9 7 9 7 3 1 3 6 7 8 8 5 7 6 6 5 5 5 4 5 4 7 6 6 3 6 5 5 6 7 5 7 6 3 3 4 5 6 7 7 7 5 4 5 6 6 6 3 4 5 3 3 2 4 4 4 4 4 3 3 4 4 4 3 3 3 5 4 4 3 4 3 3 3 1 1 0 1 0 2 3 3 6 10
4 5 0 1 2 3 5 6 5 6 6 4 6 7 8 7 5 5 5 4 5 4 4 3 3 4 6 4 5 5 5 6 6 6 6 4 3 3 4 6 7 7 8 7 5 4 5 5 5 5 3 3 5 4 3 3 4 4 4 4 4 4 4 4 4 4 4 4 4 3 4 4 3 3 3 3 3 2 2 1 1 1 1 2 4 6 5
2 3 3 3 6 8 8 5 6 4 6 6 9 5 5 9 7 5 5 4 5 6 4 4 5 4 4 5 4 6 7 6 7 6 6 4 4 3 3 5 8 7 7 7 5 3 5 5 5 5 2 3 5 4 3 4 4 5 4 5 4 5 4 4 5 4 4 5 3 5 5 3 3 3 3 3 2 1 2 1 1 1 1 3 3 2 4
4 5 6 5 5 4 7 6 5 5 5 5 6 7 3 4 6 6 4 3 2 5 4 5 5 5 4 5 4 5 6 7 7 6 6 5 5 5 4 1 4 5 5 4 3 4 6 5 5 3 2 3 3 3 3 4 4 5 5 5 4 6 7 6 5 5 5 4 4 5 4 4 3 4 4 3 2 2 1 1 1 1 2 1 2 2 3
7 7 8 5 3 5 5 5 6 6 6 4 6 5 6 7 6 6 5 4 5 4 4 5 5 5 5 5 6 7 7 7 7 7 6 6 5 6 6 7 9 9 7 5 4 4 4 5 6 3 3 3 4 3 3 4 4 5 5 4 5 4 5 7 5 5 5 5 4 4 5 4 3 3 3 2 1 1 1 1 0 0 0 1 1 2 2
8 5 1 2 2 3 5 4 7 6 5 7 7 4 4 2 4 6 6 5 5 4 5 4 3 4 5 5 7 8 8 7 7 7 7 7 6 6 7 7 8 8 8 6 5 4 4 6 3 2 3 4 4 4 4 4 4 4 4 3 4 4 5 5 5 5 4 5 4 3 3 3 2 4 2 2 2 2 1 1 0 0 0 1 1 2 3
12 10 10 11 11 9 8 7 5 6 4 1 2 4 4 4 6 6 6 5 6 5 5 4 4 5 5 7 7 7 7 7 6 4 5 6 5 6 6 7 8 8 8 6 6 5 4 3 3 3 3 4 4 4 4 4 4 4 3 5 5 4 4 4 5 4 4 4 4 4 3 4 2 2 2 3 1 1 1 0 0 0 1 2 3 3 7
2 5 7 4 3 2 1 5 8 7 7 6 4 5 5 5 6 6 5 7 4 3 3 4 5 5 6 6 6 5 4 4 5 6 5 5 5 5 6 8 8 8 8 7 6 5 3 3 3 3 4 4 4 4 4 4 4 5 4 5 5 4 4 5 4 3 3 2 3 3 2 2 1 2 3 2 1 2 1 1 0 1 1 2 4 3 4
4 5 7 9 8 6 8 7 3 3 5 5 5 6 6 5 6 6 7 5 2 3 3 5 6 7 7 6 5 4 4 5 6 7 7 6 5 5 6 7 7 8 7 7 5 4 4 2 3 5 3 4 4 4 4 4 4 4 4 5 4 5 6 4 4 3 4 4 3 2 2 2 2 4 3 2 1 0 0 0 1 1 1 2 3 3 4
9 7 6 6 6 10 12 9 7 7 10 9 9 9 9 8 8 4 4 5 4 4 4 5 7 8 7 5 5 5 5 4 5 6 6 5 4 5 6 5 5 5 5 6 1 3 4 3 6 7 4 3 4 4 4 6 4 4 4 5 4 4 4 4 3 4 2 3 3 2 4 4 1 1 2 0 0 0 0 1 3 2 2 2 2 2 5
8 8 8 7 7 10 8 7 6 7 10 13 9 7 5 6 5 5 6 5 5 4 4 6 8 8 7 6 7 8 6 5 6 7 7 6 5 8 6 6 4 3 4 2 0 2 2 4 6 5 3 3 3 3 4 6 5 4 5 4 4 4 5 3 4 5 4 2 4 2 1 1 1 1 1 1 0 1 2 2 2 2 3 2 2 2 4
9 6 7 7 6 7 6 7 8 9 10 12 9 8 5 5 4 5 7 7 5 4 8 9 8 9 8 9 8 6 6 5 6 9 9 7 6 9 6 3 2 1 2 1 3 1 1 3 4 4 3 2 3 3 4 5 5 5 4 4 4 3 2 4 2 4 3 3 1 1 1 0 0 0 1 1 1 1 3 3 2 4 2 3 3 4 5
6 6 6 7 9 6 7 9 9 10 9 7 8 7 3 5 5 7 7 8 6 4 5 6 8 9 8 9 9 7 4 5 8 10 11 9 10 10 6 4 2 2 2 4 2 2 3 5 4 4 3 3 3 2 3 4 3 4 4 4 4 4 3 3 2 2 1 1 0 1 1 1 1 2 2 2 2 2 3 3 2 4 3 4 4 5 5
5 5 5 6 5 5 6 7 9 8 8 8 7 5 4 5 4 8 8 7 5 5 5 6 9 9 8 9 9 8 5 4 7 8 8 8 7 6 7 4 0 0 0 1 1 2 3 3 3 4 2 3 2 3 2 4 3 4 3 3 3 3 2 1 1 1 1 1 3 2 2 2 1 1 3 1 2 2 2 3 3 4 3 5 6 5 5
5 6 6 6 5 5 6 7 6 8 9 7 6 5 6 5 7 8 6 6 7 7 9 8 9 11 10 9 8 8 7 6 6 5 4 5 6 7 7 4 3 2 2 4 2 3 2 3 3 3 3 2 2 3 3 3 3 3 3 1 1 1 1 1 2 1 2 2 1 2 3 2 2 2 2 3 3 4 5 3 4 4 5 4 6 6 6
5 5 5 5 5 6 6 7 9 10 9 8 6 6 6 6 8 7 7 8 8 9 10 9 9 9 8 8 9 9 7 5 7 6 6 3 1 2 5 7 5 3 5 4 3 4 4 2 3 2 3 4 2 3 3 1 1 2 1 1 2 1 1 1 1 1 1 2 3 3 3 3 3 4 4 4 5 5 4 4 5 6 4 6 5 5 5
4 4 3 5 7 5 6 7 7 8 11 8 6 6 7 7 6 6 7 8 8 8 9 8 8 7 6 5 7 7 6 5 5 4 7 5 6 5 3 6 5 4 5 5 4 4 3 2 2 3 4 3 4 2 1 0 1 2 2 1 1 2 1 1 2 2 2 3 4 5 5 5 4 5 4 6 6 5 4 5 6 6 6 5 5 6 5
4 3 4 5 5 7 6 7 9 10 8 6 7 8 7 7 7 5 7 8 9 8 7 7 6 6 5 6 6 5 4 2 2 2 6 4 5 0 1 2 2 2 4 4 3 3 3 3 3 4 4 4 3 4 1 1 1 1 1 2 2 2 2 2 3 4 4 4 4 5 6 5 5 5 5 6 6 5 6 6 6 5 6 5 5 6 6
5 4 5 7 9 8 7 8 7 7 8 9 10 10 8 7 7 7 7 8 9 7 6 6 6 5 6 6 5 5 5 5 4 2 1 1 2 4 5 3 3 2 3 4 1 2 3 4 4 4 4 4 4 2 1 1 2 2 2 2 2 5 3 4 4 5 4 5 6 5 5 6 5 5 5 6 5 6 6 7 7 5 6 6 6 6 6
5 6 6 7 6 5 4 5 5 7 8 10 11 8 6 5 7 7 6 6 7 6 7 6 6 5 5 3 4 5 5 5 5 4 4 4 5 5 4 3 2 2 2 1 1 1 2 2 3 3 3 3 4 1 2 2 3 3 3 3 3 4 5 4 5 5 5 5 7 7 6 6 6 6 7 5 6 6 6 6 6 6 6 7 6 7 6
7 7 6 6 8 7 7 8 9 10 10 9 7 7 4 5 6 6 5 7 7 6 6 5 6 4 3 4 3 2 3 4 5 2 2 4 2 3 3 1 1 1 1 1 2 2 4 4 4 3 4 3 3 2 3 4 3 4 3 4 4 5 5 6 5 5 6 5 4 4 6 5 6 6 6 6 6 6 6 6 7 6 6 6 6 6 5
9 9 7 7 8 8 9 9 9 9 7 4 5 5 4 6 6 6 5 6 6 6 6 5 4 3 2 3 2 2 1 0 1 4 3 3 2 2 1 2 2 2 1 0 1 2 3 4 4 4 4 4 2 2 3 3 3 4 5 5 5 5 4 5 5 5 6 5 6 5 6 6 5 5 6 6 6 6 7 7 7 7 6 6 6 7 5
6 7 7 6 6 6 6 7 7 6 4 3 3 3 3 4 7 5 4 4 5 6 5 4 4 3 3 3 3 2 3 4 4 4 3 2 1 1 1 0 1 2 2 1 1 2 4 5 5 5 4 2 3 3 3 4 3 4 4 6 4 4 5 6 5 6 5 6 5 5 6 6 6 6 7 5 6 6 6 7 7 7 8 7 7 6 5
6 7 6 7 6 6 7 7 5 4 3 4 3 3 4 6 6 5 2 3 3 6 4 3 2 3 3 3 2 2 2 3 2 2 1 0 0 1 1 1 1 2 3 2 2 3 3 2 2 3 3 3 3 3 3 3 3 3 4 5 4 4 5 6 6 5 5 6 6 6 6 6 6 6 6 6 6 6 6 7 7 6 6 6 6 6 6
7 6 6 6 7 6 6 6 6 5 4 5 4 4 5 5 6 6 5 5 5 3 2 4 4 1 1 2 2 2 1 1 1 1 1 0 0 0 1 1 1 2 2 3 3 2 3 2 4 4 4 4 4 3 3 4 4 3 4 5 4 5 5 6 6 5 5 6 6 6 6 6 6 6 6 6 6 6 6 6 6 6 6 6 6 5 5
Wind_Direction
235 236 237 175 190 192 194 200 198 195 199 195 204 220 223 146 202 239 256 165 227 253 229 205 222 209 212 215 221 218 207 191 182 165 174 188 195 189 191 198 191 186 187 188 186 185 186 177 181 179 176 175 172 172 168 169 168 173 165 165 170 173 176 180 183 178 174 175 172 165 165 165 167 171 170 169 168 169 173 170 171 170 166 161 162 168 170
237 242 239 170 182 211 199 208 204 201 197 205 209 218 213 207 228 242 253 245 244 258 200 197 219 208 214 225 213 135 175 201 185 181 196 199 196 195 199 196 191 192 192 189 188 182 181 186 184 181 179 179 179 175 175 173 172 170 163 173 173 177 182 185 178 175 174 172 173 168 169 174 175 171 170 170 170 172 176 173 169 168 166 170 174 174 169
243 243 241 165 192 209 222 217 214 215 214 214 213 214 220 222 234 241 251 265 265 261 137 213 228 217 190 84 178 206 209 182 182 191 197 201 200 200 197 195 198 197 191 187 181 182 189 189 190 186 184 177 171 173 176 176 176 173 170 174 180 180 185 182 175 171 172 178 172 178 179 174 172 171 174 172 173 173 171 172 173 171 173 178 184 181 176
251 246 207 186 180 215 241 250 237 228 220 216 179 206 217 207 227 239 248 256 256 260 132 227 144 152 189 211 214 211 211 199 190 194 206 205 204 202 201 198 193 190 189 185 184 190 192 193 189 185 177 173 174 184 178 178 175 165 175 179 182 185 184 175 173 174 178 175 178 183 177 179 175 175 171 173 175 174 173 175 178 172 181 188 183 183 180
245 252 129 163 156 148 264 248 241 234 226 205 214 228 223 216 219 229 231 240 244 254 146 205 222 198 212 218 209 215 218 203 196 201 204 204 200 198 196 196 192 190 189 190 192 192 190 190 190 189 173 166 184 181 176 174 152 169 181 182 183 184 181 175 176 177 177 179 184 185 186 178 175 173 175 177 177 176 184 181 168 181 189 182 191 185 182
237 257 130 127 143 218 227 239 244 233 230 220 216 224 220 224 202 222 227 241 252 252 179 207 227 204 214 210 219 203 196 193 207 220 221 213 206 202 200 197 195 194 190 191 192 191 189 188 184 168 173 180 175 162 158 156 169 177 179 183 183 185 179 179 177 180 182 184 188 190 182 179 176 179 179 186 183 180 173 172 183 187 185 189 188 191 190
239 111 107 169 210 231 241 45 183 205 224 227 225 234 238 233 224 234 248 255 255 246 224 219 221 218 227 223 219 220 212 191 192 200 206 205 201 204 201 197 195 189 186 183 177 176 183 178 167 158 168 169 159 163 168 173 178 175 182 181 185 185 183 181 178 184 187 189 191 187 184 181 179 183 187 181 178 183 181 185 186 189 187 189 197 194 195
27 99 199 235 223 249 327 256 75 247 82 132 182 243 244 240 232 223 232 240 245 249 245 234 229 222 233 244 256 260 219 184 193 200 208 206 196 197 196 194 194 184 181 181 182 181 159 153 162 168 173 164 165 176 169 172 173 178 178 183 189 185 186 184 188 190 188 190 190 187 183 179 182 188 187 185 185 184 184 189 194 177 199 195 193 195 194
221 208 227 241 331 314 287 269 189 146 171 163 171 228 242 234 228 224 231 244 247 247 248 237 229 222 140 260 264 256 175 192 203 197 199 192 196 195 203 199 199 189 171 160 157 147 154 158 161 176 167 164 165 158 167 175 173 177 180 190 193 190 189 190 193 191 188 188 189 184 181 181 189 191 186 191 193 172 180 189 186 194 198 196 196 192 191
201 219 238 244 247 247 254 256 208 199 182 165 168 190 266 256 210 208 211 235 242 240 242 223 187 102 162 256 250 213 214 185 152 85 93 117 134 136 136 117 144 151 155 149 150 148 150 161 165 155 153 159 156 162 170 170 173 181 187 199 193 187 194 195 193 189 189 186 185 183 182 191 193 195 194 193 189 179 185 186 196 203 195 196 200 196 193
165 219 234 228 234 245 244 179 179 148 94 135 132 128 255 275 180 216 194 221 236 229 222 186 130 150 214 242 240 200 164 134 134 128 126 128 149 160 166 165 164 162 154 139 128 123 134 151 155 147 150 152 156 168 170 172 176 184 198 199 187 193 200 195 190 188 186 185 186 185 190 196 193 193 194 194 185 177 196 194 204 187 187 196 203 206 207
206 208 224 233 216 254 240 220 229 217 92 133 103 202 261 300 309 295 242 233 241 241 184 151 165 180 220 236 262 180 151 149 144 138 145 145 148 149 143 127 129 123 117 105 109 128 153 158 145 149 151 155 163 165 171 168 181 198 202 195 197 199 193 185 186 184 185 186 189 188 196 198 195 199 185 167 177 188 198 195 194 186 192 199 202 211 202
222 223 243 279 274 267 199 185 207 229 188 117 147 227 276 253 268 281 213 221 197 135 140 161 188 234 256 249 194 122 130 106 87 75 92 118 122 127 119 117 113 111 110 121 139 150 145 145 150 150 147 151 164 168 164 173 199 206 201 193 190 190 179 179 184 187 187 188 191 199 197 195 190 184 180 188 180 185 194 189 183 191 197 205 208 215 202
224 222 232 236 263 241 164 258 173 191 113 197 221 229 195 219 281 312 198 154 167 156 162 175 164 151 324 46 74 117 115 117 116 119 116 106 91 76 99 114 113 104 98 100 104 110 133 143 147 147 148 154 160 153 166 193 211 203 177 178 170 167 177 185 187 187 190 197 196 195 188 171 177 194 195 183 186 187 181 182 194 205 203 204 208 218 214
292 125 236 209 243 221 106 131 52 188 165 238 147 171 237 213 258 342 9 142 160 128 103 97 134 108 63 67 87 98 104 113 129 140 146 136 130 128 119 101 93 118 120 129 136 136 134 134 136 148 143 147 149 160 179 212 194 151 163 152 162 171 178 184 189 192 194 191 193 185 186 186 184 194 181 181 184 176 180 188 199 208 208 204 207 221 226
184 191 209 213 243 132 273 146 180 190 182 152 168 133 87 229 206 228 180 26 126 113 120 125 102 95 104 74 88 86 91 107 108 102 92 89 90 86 71 105 130 126 118 119 117 115 126 132 136 142 148 145 156 167 210 161 126 140 141 159 155 170 185 191 190 195 195 196 194 188 187 183 188 186 183 187 183 186 186 188 198 210 215 202 209 221 224
180 201 208 309 237 277 277 182 275 282 294 129 179 157 159 166 238 179 107 156 128 134 124 115 127 93 57 120 112 115 141 132 131 129 133 132 134 132 134 136 132 128 137 135 126 121 126 135 137 142 145 152 155 194 207 131 161 155 156 152 166 179 191 192 195 198 188 192 193 193 188 178 184 190 187 174 186 198 183 198 201 210 216 196 210 220 225
184 28 173 57 353 287 303 311 237 279 284 311 132 177 161 241 179 173 149 166 152 141 144 119 87 132 147 125 105 98 118 122 115 104 106 104 105 117 118 118 121 119 114 120 129 135 134 141 142 146 147 148 170 206 149 157 148 148 147 157 176 196 194 195 199 179 184 198 195 192 185 190 194 191 184 185 194 187 188 204 206 211 216 203 217 222 229
124 252 115 159 265 304 293 303 302 249 224 256 261 241 54 2 125 95 63 143 158 157 146 140 142 140 142 130 130 143 137 139 146 146 136 140 149 148 146 147 129 118 127 131 136 144 158 181 166 170 170 179 135 130 154 153 149 146 154 164 177 175 190 188 156 175 194 194 196 193 192 195 197 189 183 186 189 189 195 201 207 212 216 210 216 220 229
158 230 134 273 287 254 277 263 305 293 274 255 172 58 51 59 55 75 57 91 95 111 114 138 135 150 163 145 158 157 166 156 151 147 146 142 125 105 127 137 125 128 138 147 154 156 170 183 178 180 179 163 137 90 118 137 139 138 149 167 171 176 165 153 156 157 183 162 168 189 219 212 207 206 201 189 195 201 197 203 200 214 212 215 218 219 231
150 344 285 273 308 300 267 260 248 241 245 280 328 60 66 93 91 75 46 54 143 130 148 144 134 143 199 180 160 152 145 147 143 148 151 149 141 139 140 155 155 155 158 152 167 169 143 127 137 125 121 127 161 140 125 129 131 131 147 155 151 156 157 144 163 159 161 155 162 169 185 231 297 216 196 214 228 265 333 153 209 222 218 241 241 235 230
204 197 197 166 135 243 233 234 233 233 223 201 250 104 131 124 129 123 94 50 35 100 145 155 152 161 173 176 151 152 161 162 150 133 130 129 127 110 104 116 117 105 111 136 133 107 85 120 131 142 153 181 200 160 142 139 133 135 149 149 153 174 166 166 167 161 172 175 170 173 177 192 214 257 228 198 198 202 246 250 224 225 213 222 210 201 225
220 218 172 187 168 190 216 210 218 212 199 170 205 223 197 175 172 158 128 116 94 89 56 92 155 157 162 177 156 143 152 168 167 158 145 140 138 136 136 127 124 115 110 108 112 101 112 111 112 109 89 50 47 31 50 138 140 148 146 155 172 177 165 185 181 180 174 179 186 179 183 179 192 210 263 302 262 236 226 224 235 245 245 245 236 217 200
264 189 175 189 172 199 233 228 215 204 186 176 205 199 146 171 174 176 141 154 146 175 145 55 111 156 148 163 160 158 140 129 134 138 142 133 143 145 156 151 148 130 126 123 130 143 138 116 108 96 78 41 25 7 12 18 107 137 163 164 190 198 189 184 174 173 175 173 166 168 177 166 175 184 210 248 288 285 258 245 244 241 242 246 249 253 247
207 198 177 187 197 220 234 219 224 208 172 171 188 195 168 162 190 161 148 181 198 150 152 133 58 125 143 142 137 145 143 148 144 142 143 138 139 143 151 132 152 156 157 152 139 136 127 119 107 99 88 34 6 4 358 355 99 134 162 168 177 178 177 173 170 164 160 163 171 167 174 170 181 176 189 212 241 283 310 281 253 249 251 253 256 257 257
145 161 177 183 196 229 345 80 360 179 180 169 154 121 167 163 151 138 164 168 165 152 140 147 121 84 126 130 120 114 95 119 126 111 111 114 104 96 128 152 153 120 114 110 116 119 116 112 111 102 84 16 0 338 334 335 81 123 131 138 152 152 153 156 143 155 158 168 162 179 175 175 181 182 201 199 218 235 265 317 339 309 272 258 262 266 268
174 150 117 88 201 248 194 171 231 192 166 162 152 136 138 133 131 116 105 82 102 134 141 149 130 118 75 99 110 116 130 126 88 83 91 85 80 83 96 97 97 99 98 91 79 81 99 99 94 86 69 359 335 318 316 339 95 91 100 96 88 77 84 107 131 149 152 143 153 151 155 167 173 178 190 188 181 190 209 228 241 253 291 336 352 7 351
158 168 161 164 197 199 214 205 87 126 133 143 130 124 129 115 109 112 112 101 84 73 66 92 120 116 112 118 113 103 98 104 108 100 89 88 84 69 79 92 95 96 90 86 77 68 78 86 88 82 45 346 331 321 331 43 83 88 89 91 88 84 74 77 82 86 102 121 137 142 157 170 170 176 165 166 162 168 120 119 111 20 340 1 17 346 348
181 169 68 55 150 107 93 99 85 97 93 82 106 116 125 115 131 132 137 137 141 110 97 63 69 112 129 134 111 118 112 112 111 109 117 112 84 82 91 96 96 93 90 88 73 69 87 88 92 79 25 341 340 342 8 53 77 85 89 95 92 89 74 77 87 88 90 88 103 116 116 113 115 99 92 89 85 79 75 71 69 54 79 344 353 337 343
98 69 79 87 113 127 111 109 131 121 118 133 124 126 138 134 130 149 140 147 149 130 150 132 99 96 111 111 124 140 143 141 128 120 109 87 61 39 67 105 96 89 85 70 62 71 86 85 86 78 20 340 344 355 37 64 69 71 79 84 96 98 101 101 93 95 87 83 83 79 79 86 77 94 87 83 82 89 95 66 72 83 17 348 351 345 328
83 70 85 88 96 115 135 145 128 131 129 128 131 122 96 106 132 143 165 150 89 107 134 135 133 125 115 127 117 92 93 96 99 97 85 61 41 26 359 360 128 142 117 105 72 76 86 82 76 64 349 339 343 9 60 71 80 78 77 83 92 106 106 100 103 95 99 94 87 88 86 84 90 92 92 89 77 72 70 76 46 24 8 358 333 317 304
94 71 64 50 83 116 108 128 127 146 157 138 121 145 158 142 151 168 163 151 179 156 135 115 137 154 145 122 106 98 92 93 90 85 80 66 50 35 42 59 75 85 88 73 61 68 81 83 68 24 349 348 8 20 53 73 76 79 84 84 83 83 96 95 83 92 90 94 92 91 96 96 79 86 81 79 98 95 86 88 53 25 242 277 289 294 312
129 111 97 104 72 99 144 172 152 174 156 166 188 171 162 156 133 143 155 148 122 125 138 154 150 112 116 111 99 98 96 95 89 82 71 63 54 52 54 66 75 79 76 68 67 63 72 81 74 22 17 15 28 35 53 64 70 82 76 79 76 82 85 95 99 90 85 82 84 89 83 85 96 95 109 105 106 103 101 99 134 104 310 300 275 302 316
165 184 191 187 169 172 180 210 203 172 166 118 131 129 119 114 113 118 120 113 105 102 117 117 102 105 103 101 104 109 116 104 91 81 78 79 74 68 66 73 80 81 77 70 66 64 62 71 69 54 39 43 43 46 51 61 75 78 85 82 83 81 81 78 88 92 90 83 88 85 92 92 87 96 78 95 94 100 103 115 97 133 286 293 285 283 301
47 63 52 67 22 11 176 173 183 177 161 147 101 75 73 76 86 93 93 95 99 132 125 101 98 98 102 104 105 117 114 130 140 129 123 110 108 104 103 96 87 81 71 54 50 48 48 73 82 68 60 53 51 48 55 63 78 87 80 91 86 88 85 84 86 92 107 118 105 93 85 83 62 75 91 96 82 91 86 106 132 249 287 296 298 306 302
45 75 57 46 33 34 53 46 44 111 130 120 111 103 81 69 72 76 82 88 84 88 103 102 101 94 86 98 109 112 113 111 120 126 125 125 122 113 102 98 99 92 88 66 36 27 1 23 78 79 61 54 48 39 49 59 60 76 88 86 87 81 78 83 81 76 78 91 78 87 101 101 94 80 83 72 72 77 96 324 296 290 270 267 270 286 286
25 68 76 70 58 48 49 48 23 52 85 87 88 84 78 55 70 81 83 73 64 64 93 108 96 93 90 72 81 73 69 92 112 119 122 116 106 95 93 87 80 98 94 83 13 40 0 21 67 77 66 57 53 45 45 52 54 56 73 77 83 85 86 79 70 77 59 68 85 78 72 65 50 46 48 89 73 260 191 237 264 263 261 261 274 290 301
43 43 59 65 56 56 58 46 47 75 93 84 65 64 66 88 82 83 78 66 53 51 73 81 97 105 101 85 66 63 60 66 91 101 103 101 102 97 68 75 60 65 85 128 32 48 11 54 59 66 64 69 57 51 46 47 61 62 73 80 87 91 89 92 81 80 71 60 68 75 76 81 79 8 349 17 320 277 264 261 259 268 279 289 291 290 290
73 66 65 66 68 69 77 57 52 54 65 95 99 75 62 79 85 87 74 66 52 71 93 99 105 93 89 89 83 67 58 66 87 98 94 83 81 90 97 108 89 97 160 153 98 87 60 78 88 86 82 78 74 72 65 59 69 77 78 84 84 85 87 91 97 88 86 96 79 69 75 62 109 207 272 275 255 254 257 260 268 276 289 289 296 292 289
71 60 56 54 57 52 69 68 57 59 47 45 78 82 56 86 82 84 80 69 41 57 97 117 107 106 107 107 106 97 88 94 110 110 114 111 103 101 98 51 17 355 36 93 84 90 83 90 99 95 91 84 88 76 66 66 73 78 77 79 82 84 83 89 89 87 74 90 108 142 132 203 220 231 237 245 258 266 279 286 292 289 290 290 285 278 280
70 80 76 73 72 52 64 82 77 62 52 47 51 50 49 81 96 84 72 73 48 54 68 99 111 105 112 117 116 117 108 89 92 111 127 112 102 113 110 132 226 356 14 109 121 91 91 106 106 93 88 83 93 98 75 69 83 89 86 89 84 89 87 88 97 136 153 174 183 203 213 221 228 248 250 259 260 260 264 268 273 272 265 270 277 274 269
68 77 86 84 81 81 84 86 99 79 59 50 47 50 51 57 79 90 91 84 77 70 76 68 87 112 120 117 115 107 95 95 91 75 70 116 143 134 112 178 181 192 185 127 115 107 85 86 90 111 121 117 109 117 110 91 85 80 88 87 98 106 123 137 152 208 192 182 192 200 216 210 208 247 259 257 267 267 264 264 268 267 265 256 258 260 262
60 81 85 89 82 82 95 97 90 95 87 60 51 51 55 60 76 83 85 84 87 90 86 92 97 103 112 115 112 103 106 109 99 102 84 62 92 217 162 163 173 189 155 144 132 119 118 117 112 110 123 123 136 119 100 89 97 108 112 137 169 162 171 185 202 214 210 216 236 235 226 233 237 241 248 250 251 254 257 257 258 262 262 258 257 262 262
74 80 97 106 103 105 104 101 98 90 83 67 54 60 64 65 67 85 94 96 92 92 102 103 101 100 102 110 106 105 111 111 108 116 103 84 54 32 68 130 158 153 135 134 130 135 140 147 150 150 133 130 136 141 122 150 163 182 184 175 202 203 204 231 245 225 226 233 232 235 235 237 236 236 237 249 255 256 250 251 253 255 261 262 259 259 261
57 79 90 93 101 97 94 93 97 96 101 106 82 66 61 67 67 70 89 90 87 83 81 88 93 96 99 91 95 101 112 108 130 141 105 99 96 157 201 140 142 131 134 129 137 140 157 167 171 160 164 168 177 183 177 208 216 201 201 213 211 215 226 227 232 239 237 241 244 243 236 237 235 239 240 244 244 250 255 254 257 252 255 263 262 262 261
74 76 94 96 92 91 98 104 110 116 116 104 85 64 53 59 65 62 59 75 81 76 79 88 91 90 96 103 98 95 85 70 46 49 93 168 175 183 146 145 164 144 143 127 122 150 187 188 172 168 186 194 198 188 196 219 244 252 251 236 229 226 232 236 238 241 244 243 246 245 244 247 247 248 241 244 247 251 256 254 255 256 245 250 254 255 258
103 95 85 91 94 98 106 108 108 98 89 80 75 69 43 52 67 70 69 72 83 80 73 68 69 58 53 75 118 112 92 72 36 31 43 40 69 92 119 126 119 118 112 117 137 161 183 181 175 201 196 218 215 188 208 230 240 243 240 238 235 235 236 236 236 239 242 245 245 242 241 239 240 244 250 252 253 252 253 255 258 256 253 251 253 255 259
98 94 85 82 88 87 83 77 74 72 71 83 101 100 100 84 82 79 77 77 77 74 71 66 68 62 72 69 67 106 155 130 82 9 102 94 92 108 107 122 165 157 174 281 263 248 222 222 214 223 232 228 209 210 216 229 235 238 240 243 241 242 241 243 248 244 245 244 247 248 255 258 255 251 248 245 250 249 249 250 254 258 252 246 247 248 252
58 72 77 75 74 75 78 81 84 83 88 100 99 110 117 105 92 83 79 78 78 76 74 73 72 67 65 73 85 52 352 266 144 172 193 154 146 148 194 184 198 200 199 238 273 287 280 255 237 237 238 243 227 235 240 244 244 245 241 241 242 242 242 241 245 242 243 250 249 249 249 249 249 243 250 250 252 252 251 251 251 248 251 251 252 251 249
60 62 58 57 63 64 78 88 83 98 125 122 112 126 120 105 84 70 74 90 100 103 91 80 76 73 71 61 57 47 47 50 56 82 114 147 148 166 147 153 248 254 239 241 262 279 282 277 259 250 243 237 235 241 239 246 245 248 249 251 255 255 249 251 252 247 242 247 250 250 252 248 250 251 251 250 252 252 251 252 253 254 255 254 254 254 253
61 66 67 69 73 68 57 71 90 99 93 83 94 95 94 84 96 88 76 93 98 90 86 70 48 45 51 42 29 22 26 34 34 43 98 181 158 226 228 227 243 244 250 250 242 250 265 264 249 255 251 242 234 241 246 254 259 263 264 261 259 261 264 264 266 266 265 259 258 257 256 257 255 256 253 251 253 256 256 258 259 259 256 256 255 255 254
67 73 69 73 74 69 66 55 53 53 55 54 61 72 82 89 87 72 53 49 77 90 123 103 60 2 82 45 36 9 348 17 26 22 9 351 302 255 272 274 251 255 254 253 253 251 247 249 257 259 255 248 244 248 260 263 263 265 265 262 261 262 262 262 260 264 265 264 262 262 261 258 255 256 258 255 253 256 259 259 260 260 259 258 256 255 257